P/2018 C1 ( Lemmon-Read )

Japanese version
Home page
Updated on February 13, 2018

---------------------------------------------------------------------

* Profile

Discovery Date February 4 and 9, 2018
Magnitude 19.1 mag, 19.1 mag
Discoverer Mt. Lemmon Survey, Mike T. Read (Spacewatch, Kitt Peak)

* Orbital Elements

Epoch 2018 Feb. 11.0 TT = JDT 2458160.5
T 2018 Feb. 25.15426 TT                                 MPCW
q   2.5944328            (2000.0)            P               Q
n   0.07494662     Peri.  234.24007     -0.81250242     -0.57606110
a   5.5714469      Node   270.42174     +0.55955467     -0.72763862
e   0.5343341      Incl.    5.12958     +0.16351879     -0.37241866
P  13.15
From 42 observations 2018 Jan. 16-Feb. 10, mean residual 0".4.

* Magnitudes Graph

        m1 = 13.5 + 5 log d + 10.0 log r

---------------------------------------------------------------------

The orbital elements are published on M.P.E.C. 2018-C77.
The magnitudes graphs are made with Comet for Windows.

---------------------------------------------------------------------

Copyright(C) Seiichi Yoshida (comet@aerith.net). All rights reserved.